Regional Weather Roundup
Issued by NWS

Home | Current Version | Previous Version | Text Only | Print | Product List | Glossary On
Versions: 1 2 3 4 5 6 7 8 9 10 11 12 13 14 15 16 17 18 19 20 21 22 23 24 25 26 27 28 29 30 31 32 33 34 35 36 37 38 39 40 41 42 43 44 45 46 47 48 49 50
000
ASUS43 KMPX 040710
RWRMN
WEATHER ROUNDUP FOR MINNESOTA
NATIONAL WEATHER SERVICE TWIN CITIES/CHANHASSEN MN
200 AM CDT FRI SEP 04 2015


NOTE: "FAIR" INDICATES FEW OR NO CLOUDS BELOW 12,000 FEET WITH NO
SIGNIFICANT WEATHER AND/OR OBSTRUCTIONS TO VISIBILITY. N/A MEANS
CURRENT SKY AND/OR WEATHER CONDITIONS ARE NOT AVAILABLE.

MNZ060>063-068>070-040800-
   Twin Cities Metro

CITY           SKY/WX    TMP DP  RH WIND       PRES   REMARKS
TWIN CITIES    CLEAR     73  68  84 SE14      29.90F
ST PAUL        CLEAR     71  68  90 SE8       29.91S
CRYSTAL        CLEAR     74  68  81 E9        29.89S
BLAINE         CLEAR     73  72  94 E8        29.91S
LAKEVILLE      CLEAR     70  70 100 E3        29.91S FOG
EDEN PRAIRIE   CLEAR     74  70  87 SE9       29.89S
SOUTH ST PAUL  CLEAR     72  67  85 SE6       29.92S
LAKE ELMO      FAIR      70  68  94 E7        29.93F
$$
MNZ001>005-007-008-013>017-022>024-027-028-040800-
   Northwest Minnesota

CITY           SKY/WX    TMP DP  RH WIND       PRES   REMARKS
BEMIDJI        MOCLDY    67  65  92 SE12      29.90S
HALLOCK        CLOUDY    77  72  83 S12       29.78R
ROSEAU         CLOUDY    70  64  83 SE9       29.84R
WARROAD        CLOUDY    72  68  88 S9        29.85S
THIEF RVR FALL CLOUDY    73  70  88 SE12      29.83S
CROOKSTON      CLOUDY    75  72  88 SE12      29.80S
FOSSTON        CLOUDY    72  64  78 SE9       29.85S
DETROIT LAKES  CLOUDY    73  70  88 SE14      29.86F
MOORHEAD       MOCLDY    75  72  88 SE8       29.80S
PARK RAPIDS    CLOUDY    73  67  81 SE9       29.89F
MAHNOMEN       FAIR      73  70  88 SE8       29.84S
$$
MNZ006-009>011-018-025>026-040800-
   North Central Minnesota

CITY           SKY/WX    TMP DP  RH WIND       PRES   REMARKS
BAUDETTE       MOCLDY    67  62  84 SE14      29.89R
FLAG ISLAND    MOCLDY    70  64  83 S23       29.84F
INTL FALLS     CLEAR     58  53  84 SE6       29.95R
WASKISH        MOCLDY    68  64  88 SE7       29.90S
BIG FORK       PTCLDY    61  55  82 SE5       29.96R
LONGVILLE      MOCLDY    63  61  94 SE3       29.93F
GRAND RAPIDS     N/A     59  54  82 SE6       29.96S
CRANE LAKE     CLEAR     54  52  94 SE1       29.99F
COOK           CLEAR     55  52  88 CALM      29.99R
WALKER         CLOUDY    66  64  92 SE6       29.91F
$$
MNZ012-019>021-037-040800-
   Northeast Minnesota

CITY           SKY/WX    TMP DP  RH WIND       PRES   REMARKS
DULUTH         CLEAR     56  53  90 E9        29.99S
ELY            CLEAR     52  48  87 CALM      30.01S
HIBBING        CLEAR     55  51  86 CALM      29.99R
EVELETH        CLEAR     52  50  93 CALM      30.00S
DULUTH HARBOR  CLEAR     59  57  94 NE9       30.00S
TWO HARBORS    CLEAR     59  54  82 CALM      29.99S
SILVER BAY     CLEAR     57  54  88 N3        30.00S
GRAND MARAIS     N/A     60  55  83 E5        30.02R
G MARAIS ARPRT PTCLDY    61  54  77 E3        30.07S
$$
MNZ029>031-032-039>041-046>048-054>057-064-040800-
   West Central Minnesota

CITY           SKY/WX    TMP DP  RH WIND       PRES   REMARKS
FERGUS FALLS   MOCLDY    75  72  88 SE12      29.81S
WHEATON        MOCLDY    72  72 100 E10       29.81S FOG
MORRIS         MOCLDY    75  73  94 SE10      29.82S FOG
ALEXANDRIA     MOCLDY    73  71  93 SE15      29.88S
ELBOW LAKE     FAIR      74  72  95 SE9       29.83S
WADENA         PTCLDY    72  66  83 E8        29.88S
GLENWOOD       MOCLDY    72  70  94 E9        29.87S FOG
APPLETON       MOCLDY    75  73  94 SE9       29.81S
BENSON         MOCLDY    75  72  88 SE8       29.83S
ORTONVILLE     MOCLDY    75  72  88 SE8       29.80S
MADISON        MOCLDY    73  72  94 SE7       29.81S
WILLMAR        FAIR      75  73  94 SE9       29.86F FOG
$$
MNZ033>034-036-042>043-049>051-058-059-040800-
   Central Minnesota

CITY           SKY/WX    TMP DP  RH WIND       PRES   REMARKS
ST CLOUD       CLEAR     71  68  90 E7        29.89S
SAUK CENTRE    FAIR      71  69  94 E8        29.88S
PAYNESVILLE    CLEAR     73  72  96 E9        29.88S
AITKIN         CLEAR     63  55  77 E5        29.93F
PINE RIVER     PTCLDY    64  64 100 E9        29.95F
BRAINERD       PTCLDY    68  65  90 VRB5      29.92S
STAPLES        PTCLDY    72  64  78 CALM      29.89S
LONG PRAIRIE   FAIR      70  68  94 E7        29.89S
LITTLE FALLS   PTCLDY    70  64  83 SE6       29.90S
LITCHFIELD     CLEAR     73  73 100 SE6       29.88S
BUFFALO        CLEAR     73  69  87 E7        29.89F
MAPLE LAKE     CLEAR     72  70  95 E6        29.90S
$$
MNZ037-044-045-052-053-040800-
   East Central Minnesota

CITY           SKY/WX    TMP DP  RH WIND       PRES   REMARKS
PRINCETON      CLEAR     72  68  88 E6        29.91S
MORA           MOCLDY    64  63  94 CALM      29.95S
CAMBRIDGE      CLEAR     73  63  68 E6        29.91S
RUSH CITY      MOCLDY    68  65  89 E3        29.94S
MOOSE LAKE     MOCLDY    55  54  94 NE5       29.95F
HINCKLEY       PTSUNNY   66  64  94 E3        29.95F
CLOQUET        CLEAR     55  52  88 E3        29.99R
MCGREGOR       PTCLDY    59  57  94 E7        29.96S
$$
MNZ071>073-080-081-089-090-097-098-040800-
   Southwest Minnesota

CITY           SKY/WX    TMP DP  RH WIND       PRES   REMARKS
MONTEVIDEO     MOCLDY    75  75 100 S8        29.84S
GRANITE FALLS  PTCLDY    75  73  94 E9        29.84F
CANBY          PTCLDY    73  71  94 SE6       29.82S
MARSHALL       PTCLDY    73  68  83 SE10      29.84S
REDWOOD FALLS  CLEAR     75  72  90 SE8       29.84S
OLIVIA         CLEAR     72  70  94 SE7       29.85S
PIPESTONE      PTCLDY    75  70  83 S8        29.84S
WINDOM         PTCLDY    73  72  94 SE8       29.87S
WORTHINGTON    PTCLDY    73  66  78 S9        29.87R
JACKSON        PTCLDY    73  72  94 S8        29.89R
TRACY          PTCLDY    74  73  96 S8        29.84F
SLAYTON        PTCLDY    71  71 100 CALM      29.87S
$$
MNZ065>067-074>077-082>085-091>093-040800-
   South Central Minnesota

CITY           SKY/WX    TMP DP  RH WIND       PRES   REMARKS
MANKATO        CLEAR     75  72  88 SE7       29.89R
NEW ULM        CLEAR     75  73  94 SE8       29.87S
ST JAMES       PTCLDY    73  72  94 SE8       29.88S
FAIRMONT       PTCLDY    73  66  78 SE9       29.88S
GLENCOE        CLEAR     74  74  98 E8        29.88R FOG
FARIBAULT      CLEAR     73  72  94 E8        29.91S
OWATONNA       CLEAR     73  72  94 SE7       29.91S
WASECA         CLEAR     72  70  94 SE6       29.91S
ALBERT LEA     CLEAR     73  72  94 SE5       29.92S
$$
MNZ078>079-086>088-094>096-040800-
   Southeast Minnesota

CITY           SKY/WX    TMP DP  RH WIND       PRES   REMARKS
ROCHESTER      CLEAR     73  72  96 SE8       29.95S FOG
RED WING       CLEAR     72  66  83 E8        29.92S
STANTON        CLEAR     75  70  85 SE10G17   29.90S
DODGE CENTER   CLEAR     72  72 100 SE7       29.94S FOG
WINONA         CLEAR     73  68  83 SE7       29.95R
AUSTIN         CLEAR     75  72  88 S3        29.93S
PRESTON        CLEAR     73  71  92 SE3       29.96S
$$
ABBREVIATIONS USED IN REMARKS
   TC - TEMPERATURES IN CELSIUS
  WCI - WIND CHILL INDEX
   HX - HEAT INDEX
  VSB - VISIBILITY
$$


USA.gov is the U.S. government's official web portal to all federal, state and local government web resources and services.